Regional Weather Roundup
Issued by NWS

Home | Current Version | Previous Version | Text Only | Print | Product List | Glossary Off
Versions: 1 2 3 4 5 6 7 8 9 10 11 12 13 14 15 16 17 18 19 20 21 22 23 24 25 26 27 28 29 30 31 32 33 34 35 36 37 38 39 40 41 42 43 44 45 46 47 48 49 50

000
ASUS43 KIND 050959
RWRIN

WEATHER ROUNDUP FOR INDIANA
NATIONAL WEATHER SERVICE INDIANAPOLIS IN
600 AM EDT SUN JUL 05 2015

NOTE: "FAIR" INDICATES FEW OR NO CLOUDS BELOW 12,000 FEET WITH NO
SIGNIFICANT WEATHER AND/OR OBSTRUCTIONS TO VISIBILITY.

* - STATION DOES NOT REPORT WEATHER SUCH AS PRECIPITATION OR FOG.

+ - STATION NOT QUALITY CONTROLLED BY THE NATIONAL WEATHER SERVICE.
    USE DATA WITH CAUTION...ESPECIALLY DEWPOINT AND RELATIVE
    HUMIDITY OBSERVATIONS.

INZ001>003-010>013-019-020-051100-
NORTHWEST INDIANA

CITY           SKY/WX    TMP DP  RH WIND       PRES   REMARKS
GARY /AIRPORT/ PTCLDY   N/A N/A N/A CALM      30.08R FOG
RENSSELAER +   CLEAR     61  61 100 CALM      30.09R FOG
VALPARAISO     FOG       59  57  94 CALM      30.09R VSB 3/4

$$

LMZ046-743>745-051100-
SOUTHERN LAKE MICHIGAN

STATION/POSITION TIME  TEMP    WIND        PRES    WAVE
                       AIR SEA DIR/SP/G            HT
                 (UTC) (F)     (DEG/KT/KT) (MB)    (FT)
BURNS HARBOR     0900   66     180/  7/  8 1018.6S
MICHIGAN CITY    0900   68     150/  8/ 11   N/A
5NW MICH CITY    0900   65 64  180/  2/  2   N/A     0

$$

INZ004-005-014>016-021>024-051100-
NORTH CENTRAL INDIANA

CITY           SKY/WX    TMP DP  RH WIND       PRES   REMARKS
GOSHEN         PTCLDY    58  55  90 CALM      30.10R FOG
PERU/GRISSOM   CLEAR     59  57  94 CALM      30.08R
SOUTH BEND     CLEAR     59  55  87 CALM      30.10R FOG

$$

INZ006>009-017-018-025>027-051100-
NORTHEAST INDIANA

CITY           SKY/WX    TMP DP  RH WIND       PRES   REMARKS
ANGOLA *+        N/A     57  57 100 CALM      30.11R
FORT WAYNE     PTCLDY    59  58  96 CALM      30.11R

$$

INZ028-029-035-036-043>045-051>053-051100-
WEST CENTRAL INDIANA

CITY           SKY/WX    TMP DP  RH WIND       PRES   REMARKS
CRAWFORDSVL +  PTCLDY    55  55  97 CALM      30.09R FOG
GREENCASTLE +  MOCLDY    63  55  77 CALM      30.09R HAZE
LAFAYETTE      CLEAR     58  58 100 CALM      30.08R FOG
TERRE HAUTE    MOCLDY    63  62  97 CALM      30.07R FOG

$$

INZ030>032-037>040-046>048-054>057-064-065-051100-
CENTRAL INDIANA

CITY           SKY/WX    TMP DP  RH WIND       PRES   REMARKS
GREENWOOD *+   CLOUDY    63  57  82 CALM      30.08R
INDIANAPOLIS   MOCLDY    65  58  78 NE5       30.06R HAZE
-EAGLE CREEK   MOCLDY    63  60  90 N3        30.08R FOG
KOKOMO *+      CLEAR     59  45  58 CALM      30.09R
MT COMFORT *+  MOCLDY    59 N/A N/A CALM      30.09R
SHELBYVILLE    CLOUDY    63  59  87 E5        30.07R FOG

$$

INZ033-034-041-042-049-050-058-059-051100-
EAST CENTRAL INDIANA

CITY           SKY/WX    TMP DP  RH WIND       PRES   REMARKS
MUNCIE         PTCLDY    61  59  93 CALM      30.09R FOG

$$

INZ060-061-067>069-081>083-085>088-051100-
SOUTHWEST INDIANA

CITY           SKY/WX    TMP DP  RH WIND       PRES   REMARKS
EVANSVILLE     CLOUDY    71  67  87 N3        30.04R SMOKE
HUNTINGBURG *+ CLOUDY    68  64  88 N3        30.05R

$$

INZ062-063-066-070>080-084-089>092-051100-
SOUTH CENTRAL AND SOUTHEAST INDIANA

CITY           SKY/WX    TMP DP  RH WIND       PRES   REMARKS
BLOOMINGTON    CLOUDY    63  62  97 CALM      30.07R FOG
MADISON *+     CLOUDY    66  63  88 NE3       30.08R
SEYMOUR +      CLOUDY    66  64  94 CALM      30.07R FOG

$$



USA.gov is the U.S. government's official web portal to all federal, state and local government web resources and services.